SAS360 ESGG-ESSA

Flight info

Callsign SAS360
Flight time N/A
Altitude 35000
Route LABAN N873 ARS T317 ELTOK
Aircraft C700/M-SBDGHM1RWXY/LB2

Departure

Time 2026-05-06 18:10
Airport Göteborg Landvetter Airport (ESGG)

Arrival

Time N/A
Airport Stockholm-Arlanda Airport (ESSA)
Time Latitude Longitude Altitude Speed Heading
2026-05-06 17:39 57.66936 12.29454 495 ft 0 kts 117°
2026-05-06 17:40 57.66975 12.29491 523 ft 0 kts 117°
2026-05-06 18:01 57.66978 12.29483 523 ft 2 kts 117°
2026-05-06 18:01 57.66985 12.29456 523 ft 2 kts 117°
2026-05-06 18:01 57.66992 12.29429 523 ft 2 kts 116°
2026-05-06 18:02 57.66999 12.29403 523 ft 2 kts 116°
2026-05-06 18:02 57.67009 12.29380 523 ft 2 kts 184°
2026-05-06 18:02 57.67016 12.29383 523 ft 0 kts 205°
2026-05-06 18:03 57.66994 12.29362 523 ft 9 kts 215°
2026-05-06 18:04 57.66996 12.29253 523 ft 12 kts 291°
2026-05-06 18:04 57.67059 12.29200 523 ft 12 kts 21°
2026-05-06 18:04 57.67140 12.29271 524 ft 15 kts 27°
2026-05-06 18:04 57.67237 12.29362 525 ft 17 kts 27°
2026-05-06 18:05 57.67315 12.29432 526 ft 8 kts 25°
2026-05-06 18:05 57.67386 12.29468 526 ft 18 kts 353°
2026-05-06 18:05 57.67438 12.29358 527 ft 14 kts 298°
2026-05-06 18:05 57.67457 12.29269 526 ft 0 kts 275°
2026-05-06 18:08 57.67457 12.29236 526 ft 10 kts 269°
2026-05-06 18:08 57.67429 12.29053 524 ft 19 kts 243°
2026-05-06 18:09 57.67389 12.28985 525 ft 0 kts 206°
2026-05-06 18:09 57.67325 12.28928 524 ft 47 kts 204°
2026-05-06 18:09 57.66745 12.28411 524 ft 135 kts 205°
2026-05-06 18:10 57.65694 12.27365 736 ft 203 kts 211°
2026-05-06 18:10 57.64549 12.26160 1984 ft 184 kts 212°
2026-05-06 18:10 57.63360 12.24871 2354 ft 211 kts 213°
2026-05-06 18:10 57.62062 12.23435 3070 ft 214 kts 212°
2026-05-06 18:11 57.60815 12.22038 3992 ft 210 kts 211°
2026-05-06 18:11 57.59564 12.20618 4828 ft 212 kts 211°
2026-05-06 18:11 57.58222 12.19082 5000 ft 244 kts 211°
2026-05-06 18:11 57.57241 12.17953 5313 ft 252 kts 211°
2026-05-06 18:12 57.55217 12.15611 6218 ft 258 kts 211°
2026-05-06 18:12 57.53685 12.13823 6902 ft 261 kts 211°
2026-05-06 18:12 57.52135 12.12006 7570 ft 265 kts 211°
2026-05-06 18:12 57.50569 12.10161 8265 ft 267 kts 212°
2026-05-06 18:13 57.49012 12.08321 9004 ft 269 kts 212°
2026-05-06 18:13 57.47417 12.06430 9731 ft 272 kts 212°
2026-05-06 18:13 57.45792 12.04543 10378 ft 278 kts 208°
2026-05-06 18:13 57.43892 12.03865 11034 ft 286 kts 175°
2026-05-06 18:14 57.42053 12.05272 11722 ft 293 kts 143°
2026-05-06 18:14 57.40857 12.08356 12352 ft 303 kts 111°
2026-05-06 18:14 57.40691 12.12249 13017 ft 308 kts 78°
2026-05-06 18:14 57.41544 12.15823 13663 ft 310 kts 53°
2026-05-06 18:15 57.43080 12.18614 14194 ft 311 kts 34°
2026-05-06 18:15 57.44860 12.20936 14674 ft 315 kts 32°
2026-05-06 18:15 57.46598 12.23486 15164 ft 320 kts 40°
2026-05-06 18:15 57.48154 12.26469 15657 ft 324 kts 46°
2026-05-06 18:16 57.49668 12.29602 16126 ft 327 kts 45°
2026-05-06 18:16 57.51269 12.32645 16598 ft 330 kts 42°
2026-05-06 18:16 57.52923 12.35645 17031 ft 333 kts 42°
2026-05-06 18:16 57.54569 12.38720 17451 ft 337 kts 43°
2026-05-06 18:17 57.56211 12.41863 17875 ft 340 kts 43°
2026-05-06 18:17 57.57852 12.44983 18260 ft 343 kts 43°
2026-05-06 18:17 57.59539 12.48161 18599 ft 346 kts 43°
2026-05-06 18:17 57.61239 12.51373 18916 ft 349 kts 43°
2026-05-06 18:18 57.62948 12.54623 19225 ft 352 kts 43°
2026-05-06 18:18 57.64674 12.57907 19522 ft 355 kts 43°
2026-05-06 18:18 57.66421 12.61231 19977 ft 360 kts 43°
2026-05-06 18:18 57.68178 12.64579 21004 ft 363 kts 43°
2026-05-06 18:19 57.69950 12.67960 21799 ft 372 kts 43°
2026-05-06 18:19 57.71780 12.71459 22633 ft 379 kts 43°
2026-05-06 18:19 57.73648 12.75037 23446 ft 386 kts 43°
2026-05-06 18:19 57.75543 12.78671 24136 ft 393 kts 43°
2026-05-06 18:20 57.77464 12.82364 24849 ft 399 kts 43°
2026-05-06 18:20 57.79401 12.86090 25490 ft 407 kts 43°
2026-05-06 18:20 57.81391 12.89926 26183 ft 413 kts 44°
2026-05-06 18:20 57.83405 12.93815 26848 ft 420 kts 44°
2026-05-06 18:21 57.85459 12.97787 27500 ft 425 kts 44°
2026-05-06 18:21 57.86829 13.00441 27924 ft 429 kts 44°
2026-05-06 18:21 57.88921 13.04499 28563 ft 435 kts 44°
2026-05-06 18:21 57.91042 13.08621 29210 ft 441 kts 44°
2026-05-06 18:22 57.93190 13.12801 29868 ft 447 kts 45°
2026-05-06 18:22 57.95365 13.17044 30480 ft 452 kts 45°
2026-05-06 18:22 57.97553 13.21320 31095 ft 454 kts 45°
2026-05-06 18:22 57.99752 13.25626 31662 ft 458 kts 45°
2026-05-06 18:23 58.01941 13.29918 32195 ft 461 kts 45°
2026-05-06 18:23 58.04167 13.34292 32722 ft 463 kts 45°
2026-05-06 18:23 58.06405 13.38700 33223 ft 466 kts 45°
2026-05-06 18:23 58.08659 13.43145 33720 ft 469 kts 45°
2026-05-06 18:24 58.10928 13.47630 34165 ft 472 kts 45°
2026-05-06 18:24 58.13205 13.52139 34570 ft 474 kts 45°
2026-05-06 18:24 58.15490 13.56673 34916 ft 478 kts 45°
2026-05-06 18:24 58.17813 13.61290 34922 ft 487 kts 45°
2026-05-06 18:25 58.22455 13.70554 34909 ft 479 kts 46°
2026-05-06 18:25 58.26987 13.79625 34922 ft 474 kts 46°
2026-05-06 18:26 58.31555 13.88810 34934 ft 481 kts 46°
2026-05-06 18:26 58.36176 13.98137 34935 ft 483 kts 46°
2026-05-06 18:27 58.40753 14.07415 34940 ft 480 kts 46°
2026-05-06 18:27 58.45290 14.16648 34936 ft 478 kts 46°
2026-05-06 18:28 58.49847 14.25959 34941 ft 479 kts 46°
2026-05-06 18:28 58.54391 14.35284 34945 ft 483 kts 46°
2026-05-06 18:29 58.58978 14.44733 34948 ft 485 kts 46°
2026-05-06 18:29 58.63566 14.54225 34944 ft 484 kts 46°
2026-05-06 18:30 58.68135 14.63716 34934 ft 482 kts 46°
2026-05-06 18:30 58.72678 14.73193 34933 ft 480 kts 46°
2026-05-06 18:31 58.77184 14.82631 34948 ft 482 kts 46°
2026-05-06 18:31 58.81694 14.92116 33991 ft 479 kts 46°
2026-05-06 18:32 58.83944 14.96862 33138 ft 476 kts 47°
2026-05-06 18:32 58.86138 15.01503 32368 ft 470 kts 46°
2026-05-06 18:32 58.88332 15.06151 31595 ft 466 kts 46°
2026-05-06 18:32 58.90507 15.10766 30838 ft 462 kts 46°
2026-05-06 18:33 58.92668 15.15362 30115 ft 458 kts 46°
2026-05-06 18:33 58.94801 15.19909 29334 ft 453 kts 46°
2026-05-06 18:33 58.96901 15.24396 28647 ft 446 kts 46°
2026-05-06 18:33 58.98972 15.28826 27979 ft 439 kts 46°
2026-05-06 18:34 59.00998 15.33168 27232 ft 436 kts 46°
2026-05-06 18:34 59.03024 15.37520 26594 ft 429 kts 46°
2026-05-06 18:34 59.04989 15.41748 25970 ft 422 kts 46°
2026-05-06 18:34 59.06951 15.45979 25340 ft 417 kts 46°
2026-05-06 18:35 59.08875 15.50133 24720 ft 411 kts 46°
2026-05-06 18:35 59.10770 15.54234 24214 ft 402 kts 46°
2026-05-06 18:35 59.12629 15.58265 23635 ft 397 kts 45°
2026-05-06 18:35 59.14464 15.62246 22976 ft 391 kts 46°
2026-05-06 18:36 59.16246 15.66122 22325 ft 385 kts 46°
2026-05-06 18:36 59.18024 15.69995 21680 ft 380 kts 46°
2026-05-06 18:36 59.19776 15.73819 21057 ft 374 kts 46°
2026-05-06 18:36 59.21502 15.77593 20476 ft 369 kts 46°
2026-05-06 18:37 59.23188 15.81284 19822 ft 367 kts 46°
2026-05-06 18:37 59.24873 15.84978 19252 ft 361 kts 46°
2026-05-06 18:37 59.26535 15.88629 18695 ft 357 kts 46°
2026-05-06 18:37 59.28177 15.92242 18120 ft 352 kts 46°
2026-05-06 18:38 59.29798 15.95813 17481 ft 348 kts 46°
2026-05-06 18:38 59.31378 15.99299 16874 ft 343 kts 46°
2026-05-06 18:38 59.32953 16.02781 16267 ft 339 kts 46°
2026-05-06 18:38 59.34511 16.06230 15685 ft 335 kts 46°
2026-05-06 18:39 59.36047 16.09634 15111 ft 332 kts 46°
2026-05-06 18:39 59.37552 16.12979 14964 ft 317 kts 46°
2026-05-06 18:39 59.38996 16.16192 14956 ft 313 kts 46°
2026-05-06 18:40 59.41912 16.22808 14748 ft 322 kts 50°
2026-05-06 18:40 59.43298 16.26311 14066 ft 325 kts 50°
2026-05-06 18:40 59.44672 16.29800 13560 ft 320 kts 50°
2026-05-06 18:40 59.46052 16.33251 12905 ft 319 kts 50°
2026-05-06 18:41 59.47418 16.36664 12347 ft 316 kts 50°
2026-05-06 18:41 59.48764 16.40056 11785 ft 313 kts 50°
2026-05-06 18:41 59.50095 16.43420 11241 ft 309 kts 50°
2026-05-06 18:41 59.51403 16.46722 10973 ft 297 kts 50°
2026-05-06 18:42 59.52646 16.49868 10964 ft 287 kts 50°
2026-05-06 18:42 59.53874 16.52967 10961 ft 296 kts 50°
2026-05-06 18:42 59.55163 16.56229 10971 ft 306 kts 50°
2026-05-06 18:42 59.56474 16.59561 10974 ft 308 kts 50°
2026-05-06 18:43 59.57786 16.62901 10975 ft 306 kts 50°
2026-05-06 18:43 59.59249 16.65906 10962 ft 301 kts 36°
2026-05-06 18:43 59.60940 16.68300 10965 ft 298 kts 32°
2026-05-06 18:43 59.62630 16.70686 10964 ft 298 kts 32°